This is the latest recevied weather packets stored in our database for station/object F4IVW-13. If no packets are shown the sender has not sent any weather packets the latest 10 day(s).
| Time | Temp. | Humidity | Pressure | Rain* | Wind** | Luminosity | Snow |
|---|---|---|---|---|---|---|---|
| 1777298149 | 26.11° C | 99% | 1017.9 hPa | 0 mm | - | 17 W/m² | - |
| 1777297824 | 26.11° C | 99% | 1018 hPa | 0 mm | - | 21 W/m² | - |
| 1777297506 | 26.67° C | 99% | 1018 hPa | 0 mm | - | 13 W/m² | - |
| 1777297188 | 27.78° C | 99% | 1018.2 hPa | 0 mm | - | 5 W/m² | - |
| 1777296872 | 28.89° C | 99% | 1018.2 hPa | 0 mm | - | 3 W/m² | - |
| 1777296554 | 27.78° C | 99% | 1018.2 hPa | 0 mm | - | 3 W/m² | - |
| 1777296246 | 26.67° C | 99% | 1018.3 hPa | 0 mm | - | 33 W/m² | - |
| 1777295917 | 26.67° C | 99% | 1018.4 hPa | 0 mm | - | 32 W/m² | - |
| 1777295598 | 26.67° C | 99% | 1018.5 hPa | 0 mm | - | 33 W/m² | - |
| 1777295281 | 26.11° C | 99% | 1018.5 hPa | 0 mm | - | 34 W/m² | - |
| 1777294964 | 25° C | 99% | 1018.6 hPa | 0 mm | - | 34 W/m² | - |
| 1777294647 | 25.56° C | 99% | 1018.6 hPa | 0 mm | - | 86 W/m² | - |
| 1777294339 | 27.22° C | 99% | 1018.7 hPa | 0 mm | - | 19 W/m² | - |
| 1777294013 | 27.22° C | 99% | 1018.7 hPa | 0 mm | - | 4 W/m² | - |
| 1777293695 | 26.67° C | 99% | 1018.8 hPa | 0 mm | - | 49 W/m² | - |
| 1777293379 | 25.56° C | 99% | 1018.8 hPa | 0 mm | - | 11 W/m² | - |
| 1777293061 | 25° C | 99% | 1018.8 hPa | 0 mm | - | 56 W/m² | - |
| 1777292742 | 25° C | 99% | 1018.8 hPa | 0 mm | - | 20 W/m² | - |
| 1777292434 | 25.56° C | 99% | 1018.9 hPa | 0 mm | - | 55 W/m² | - |
| 1777292108 | 26.11° C | 99% | 1019 hPa | 0 mm | - | 99 W/m² | - |
| 1777291790 | 26.11° C | 99% | 1019 hPa | 0 mm | - | 17 W/m² | - |
| 1777291473 | 25.56° C | 99% | 1019 hPa | 0 mm | - | 63 W/m² | - |
| 1777291157 | 24.44° C | 99% | 1019 hPa | 0 mm | - | 62 W/m² | - |
| 1777290836 | 25° C | 99% | 1019.1 hPa | 0 mm | - | 75 W/m² | - |
| 1777290528 | 25° C | 99% | 1019.2 hPa | 0 mm | - | 27 W/m² | - |
* Rain latest hour (hover to see other rain measurements)
** Current wind speed in m/s (hover to see current wind gust speed)